Time,TemperatureF,DewpointF,PressureIn,WindDirection,WindDirectionDegrees,WindSpeedMPH,WindSpeedGustMPH,Humidity,HourlyPrecipIn,Conditions,Clouds,dailyrainin,SolarRadiationWatts/m^2,SoftwareType,DateUTC
2013-02-02 00:19:00,49.0,46.0,30.28,ENE,59,4.0,5.0,89,0.00,,,0.00,0,weatherlink.com 1.10,2013-02-02 08:19:00,
2013-02-02 00:34:00,49.7,46.0,30.29,SE,144,5.0,6.0,87,0.00,,,0.00,0,weatherlink.com 1.10,2013-02-02 08:34:00,
2013-02-02 00:49:00,50.0,47.0,30.29,SSE,147,2.0,9.0,88,0.00,,,0.00,0,weatherlink.com 1.10,2013-02-02 08:49:00,
2013-02-02 01:04:00,50.0,47.0,30.29,SE,141,7.0,7.0,89,0.00,,,0.00,0,weatherlink.com 1.10,2013-02-02 09:04:00,
2013-02-02 01:19:00,50.1,47.0,30.29,SE,145,5.0,11.0,90,0.00,,,0.00,0,weatherlink.com 1.10,2013-02-02 09:19:00,
2013-02-02 01:34:00,49.6,47.0,30.29,SSE,150,5.0,10.0,92,0.00,,,0.00,0,weatherlink.com 1.10,2013-02-02 09:34:00,
2013-02-02 01:49:00,49.2,47.0,30.29,SSE,154,3.0,8.0,93,0.00,,,0.00,0,weatherlink.com 1.10,2013-02-02 09:49:00,
2013-02-02 02:04:00,49.0,47.0,30.29,ESE,108,1.0,10.0,94,0.00,,,0.00,0,weatherlink.com 1.10,2013-02-02 10:04:00,
2013-02-02 02:19:00,49.1,48.0,30.29,East,100,2.0,7.0,94,0.00,,,0.00,0,weatherlink.com 1.10,2013-02-02 10:19:00,
2013-02-02 02:34:00,49.1,48.0,30.29,SE,124,5.0,8.0,94,0.00,,,0.00,0,weatherlink.com 1.10,2013-02-02 10:34:00,
2013-02-02 02:49:00,49.1,48.0,30.29,East,81,7.0,7.0,94,0.00,,,0.00,0,weatherlink.com 1.10,2013-02-02 10:49:00,
2013-02-02 03:04:00,49.6,48.0,30.29,ESE,109,0.0,5.0,94,0.00,,,0.00,0,weatherlink.com 1.10,2013-02-02 11:04:00,
2013-02-02 03:20:00,49.9,48.0,30.28,ESE,110,2.0,6.0,93,0.00,,,0.00,0,weatherlink.com 1.10,2013-02-02 11:20:00,
2013-02-02 03:34:00,49.9,48.0,30.28,ESE,111,1.0,5.0,92,0.00,,,0.00,0,weatherlink.com 1.10,2013-02-02 11:34:00,
2013-02-02 03:49:00,49.8,48.0,30.29,East,96,2.0,5.0,92,0.00,,,0.00,0,weatherlink.com 1.10,2013-02-02 11:49:00,
2013-02-02 04:04:00,49.6,47.0,30.29,East,96,0.0,2.0,92,0.00,,,0.00,0,weatherlink.com 1.10,2013-02-02 12:04:00,
2013-02-02 04:19:00,49.4,47.0,30.29,East,97,1.0,3.0,92,0.00,,,0.00,0,weatherlink.com 1.10,2013-02-02 12:19:00,
2013-02-02 04:34:00,49.3,47.0,30.29,ESE,107,0.0,2.0,92,0.00,,,0.00,0,weatherlink.com 1.10,2013-02-02 12:34:00,
2013-02-02 04:49:00,49.1,47.0,30.29,ESE,107,0.0,3.0,92,0.00,,,0.00,0,weatherlink.com 1.10,2013-02-02 12:49:00,
2013-02-02 05:04:00,49.1,47.0,30.29,SE,129,0.0,5.0,92,0.00,,,0.00,0,weatherlink.com 1.10,2013-02-02 13:04:00,
2013-02-02 05:19:00,49.2,47.0,30.29,South,173,0.0,6.0,92,0.00,,,0.00,0,weatherlink.com 1.10,2013-02-02 13:19:00,
2013-02-02 05:34:00,49.1,47.0,30.29,SSE,166,4.0,6.0,92,0.00,,,0.00,0,weatherlink.com 1.10,2013-02-02 13:34:00,
2013-02-02 05:49:00,49.0,47.0,30.29,SE,145,2.0,5.0,92,0.00,,,0.00,0,weatherlink.com 1.10,2013-02-02 13:49:00,
2013-02-02 06:05:00,48.8,47.0,30.30,SE,146,1.0,6.0,93,0.00,,,0.00,0,weatherlink.com 1.10,2013-02-02 14:05:00,
2013-02-02 06:20:00,48.7,47.0,30.30,SE,146,1.0,4.0,93,0.00,,,0.00,0,weatherlink.com 1.10,2013-02-02 14:20:00,
2013-02-02 06:35:00,48.5,47.0,30.31,SE,146,0.0,5.0,93,0.00,,,0.00,0,weatherlink.com 1.10,2013-02-02 14:35:00,
2013-02-02 06:50:00,48.5,47.0,30.31,ESE,113,3.0,6.0,93,0.00,,,0.00,0,weatherlink.com 1.10,2013-02-02 14:50:00,
2013-02-02 07:05:00,48.6,47.0,30.31,ESE,112,3.0,4.0,93,0.00,,,0.00,0,weatherlink.com 1.10,2013-02-02 15:05:00,
2013-02-02 07:20:00,48.7,47.0,30.32,ESE,103,0.0,6.0,93,0.00,,,0.00,0,weatherlink.com 1.10,2013-02-02 15:20:00,
2013-02-02 07:35:00,48.7,47.0,30.32,ESE,103,1.0,3.0,93,0.00,,,0.00,5,weatherlink.com 1.10,2013-02-02 15:35:00,
2013-02-02 07:50:00,48.7,47.0,30.33,ESE,103,0.0,2.0,93,0.00,,,0.00,16,weatherlink.com 1.10,2013-02-02 15:50:00,
2013-02-02 08:05:00,48.9,47.0,30.33,ESE,103,2.0,5.0,93,0.00,,,0.00,25,weatherlink.com 1.10,2013-02-02 16:05:00,
2013-02-02 08:20:00,49.1,47.0,30.34,ESE,103,1.0,3.0,93,0.00,,,0.00,37,weatherlink.com 1.10,2013-02-02 16:20:00,
2013-02-02 08:35:00,49.2,47.0,30.35,ESE,103,0.0,2.0,93,0.00,,,0.00,47,weatherlink.com 1.10,2013-02-02 16:35:00,
2013-02-02 08:50:00,49.3,47.0,30.35,ESE,103,1.0,3.0,93,0.00,,,0.00,70,weatherlink.com 1.10,2013-02-02 16:50:00,
2013-02-02 09:05:00,49.4,48.0,30.36,ESE,103,1.0,3.0,93,0.00,,,0.00,74,weatherlink.com 1.10,2013-02-02 17:05:00,
2013-02-02 09:20:00,49.5,47.0,30.36,ESE,103,1.0,3.0,92,0.00,,,0.00,100,weatherlink.com 1.10,2013-02-02 17:20:00,
2013-02-02 09:35:00,49.7,48.0,30.36,East,91,2.0,6.0,92,0.00,,,0.00,111,weatherlink.com 1.10,2013-02-02 17:35:00,
2013-02-02 09:50:00,49.8,48.0,30.36,ESE,102,1.0,6.0,92,0.00,,,0.00,93,weatherlink.com 1.10,2013-02-02 17:50:00,
2013-02-02 10:05:00,50.3,48.0,30.37,SE,137,3.0,5.0,92,0.00,,,0.00,69,weatherlink.com 1.10,2013-02-02 18:05:00,
2013-02-02 10:20:00,50.3,48.0,30.37,SE,126,1.0,3.0,92,0.00,,,0.00,88,weatherlink.com 1.10,2013-02-02 18:20:00,
2013-02-02 10:35:00,50.2,48.0,30.37,ESE,123,0.0,4.0,91,0.00,,,0.00,83,weatherlink.com 1.10,2013-02-02 18:35:00,
2013-02-02 10:50:00,50.3,48.0,30.36,ESE,122,1.0,4.0,91,0.00,,,0.00,214,weatherlink.com 1.10,2013-02-02 18:50:00,
2013-02-02 11:05:00,50.7,48.0,30.36,ESE,121,1.0,3.0,91,0.00,,,0.00,120,weatherlink.com 1.10,2013-02-02 19:05:00,
2013-02-02 11:20:00,51.8,49.0,30.36,ESE,121,0.0,3.0,91,0.00,,,0.00,230,weatherlink.com 1.10,2013-02-02 19:20:00,
2013-02-02 11:35:00,53.1,50.0,30.36,ESE,121,2.0,3.0,89,0.00,,,0.00,190,weatherlink.com 1.10,2013-02-02 19:35:00,
2013-02-02 11:50:00,54.1,50.0,30.35,South,169,0.0,3.0,87,0.00,,,0.00,281,weatherlink.com 1.10,2013-02-02 19:50:00,
2013-02-02 12:05:00,55.2,51.0,30.35,South,169,2.0,3.0,85,0.00,,,0.00,295,weatherlink.com 1.10,2013-02-02 20:05:00,
2013-02-02 12:20:00,56.2,51.0,30.35,South,169,2.0,3.0,82,0.00,,,0.00,251,weatherlink.com 1.10,2013-02-02 20:20:00,
2013-02-02 12:35:00,56.9,51.0,30.35,South,169,2.0,4.0,81,0.00,,,0.00,95,weatherlink.com 1.10,2013-02-02 20:35:00,
2013-02-02 12:51:00,57.2,51.0,30.34,South,169,1.0,3.0,80,0.00,,,0.00,417,weatherlink.com 1.10,2013-02-02 20:51:00,
2013-02-02 13:06:00,58.0,51.0,30.34,South,169,3.0,4.0,78,0.00,,,0.00,367,weatherlink.com 1.10,2013-02-02 21:06:00,
2013-02-02 13:21:00,57.4,49.0,30.33,SSW,205,1.0,5.0,74,0.00,,,0.00,369,weatherlink.com 1.10,2013-02-02 21:21:00,
2013-02-02 13:36:00,58.0,50.0,30.32,SSW,206,3.0,4.0,74,0.00,,,0.00,726,weatherlink.com 1.10,2013-02-02 21:36:00,
2013-02-02 13:51:00,58.2,50.0,30.32,SW,219,4.0,5.0,74,0.00,,,0.00,710,weatherlink.com 1.10,2013-02-02 21:51:00,
2013-02-02 14:06:00,58.4,50.0,30.31,WSW,238,4.0,6.0,73,0.00,,,0.00,422,weatherlink.com 1.10,2013-02-02 22:06:00,
2013-02-02 14:21:00,57.9,49.0,30.30,WSW,239,6.0,6.0,73,0.00,,,0.00,267,weatherlink.com 1.10,2013-02-02 22:21:00,
2013-02-02 14:36:00,56.5,48.0,30.30,WNW,284,6.0,7.0,73,0.00,,,0.00,443,weatherlink.com 1.10,2013-02-02 22:36:00,
2013-02-02 14:51:00,54.8,48.0,30.30,WNW,294,4.0,8.0,77,0.00,,,0.00,406,weatherlink.com 1.10,2013-02-02 22:51:00,
2013-02-02 15:06:00,54.1,48.0,30.30,WNW,298,4.0,8.0,80,0.00,,,0.00,369,weatherlink.com 1.10,2013-02-02 23:06:00,
2013-02-02 15:21:00,53.8,48.0,30.30,WNW,290,3.0,10.0,80,0.00,,,0.00,330,weatherlink.com 1.10,2013-02-02 23:21:00,
2013-02-02 15:36:00,53.6,48.0,30.30,WNW,288,4.0,9.0,80,0.00,,,0.00,290,weatherlink.com 1.10,2013-02-02 23:36:00,
2013-02-02 15:51:00,53.1,48.0,30.30,WNW,295,5.0,7.0,82,0.00,,,0.00,251,weatherlink.com 1.10,2013-02-02 23:51:00,
2013-02-02 16:06:00,52.6,47.0,30.30,NW,308,8.0,10.0,82,0.00,,,0.00,204,weatherlink.com 1.10,2013-02-03 00:06:00,
2013-02-02 16:21:00,51.9,47.0,30.31,NW,319,3.0,9.0,82,0.00,,,0.00,162,weatherlink.com 1.10,2013-02-03 00:21:00,
2013-02-02 16:36:00,51.7,47.0,30.31,NW,323,7.0,9.0,83,0.00,,,0.00,118,weatherlink.com 1.10,2013-02-03 00:36:00,
2013-02-02 16:51:00,51.1,46.0,30.31,WNW,302,2.0,7.0,84,0.00,,,0.00,72,weatherlink.com 1.10,2013-02-03 00:51:00,
2013-02-02 17:06:00,50.6,46.0,30.32,NNW,334,5.0,7.0,84,0.00,,,0.00,35,weatherlink.com 1.10,2013-02-03 01:06:00,
2013-02-02 17:21:00,49.8,46.0,30.32,NNW,330,0.0,7.0,85,0.00,,,0.00,18,weatherlink.com 1.10,2013-02-03 01:21:00,
2013-02-02 17:36:00,49.2,45.0,30.32,NNW,330,4.0,6.0,86,0.00,,,0.00,5,weatherlink.com 1.10,2013-02-03 01:36:00,
2013-02-02 17:51:00,48.8,45.0,30.32,NNW,331,3.0,5.0,87,0.00,,,0.00,0,weatherlink.com 1.10,2013-02-03 01:51:00,
2013-02-02 18:06:00,48.5,45.0,30.32,NNW,331,4.0,5.0,87,0.00,,,0.00,0,weatherlink.com 1.10,2013-02-03 02:06:00,
2013-02-02 18:21:00,48.0,45.0,30.32,NNW,336,1.0,4.0,88,0.00,,,0.00,0,weatherlink.com 1.10,2013-02-03 02:21:00,
2013-02-02 18:36:00,47.6,44.0,30.32,NNW,336,0.0,2.0,88,0.00,,,0.00,0,weatherlink.com 1.10,2013-02-03 02:36:00,
2013-02-02 18:51:00,46.7,43.0,30.32,NNW,336,1.0,2.0,88,0.00,,,0.00,0,weatherlink.com 1.10,2013-02-03 02:51:00,
2013-02-02 19:06:00,46.4,43.0,30.32,NNW,336,0.0,3.0,89,0.00,,,0.00,0,weatherlink.com 1.10,2013-02-03 03:06:00,
2013-02-02 19:21:00,46.2,44.0,30.32,NNW,336,0.0,4.0,90,0.00,,,0.00,0,weatherlink.com 1.10,2013-02-03 03:21:00,
2013-02-02 19:36:00,46.6,44.0,30.32,NNW,336,3.0,6.0,89,0.00,,,0.00,0,weatherlink.com 1.10,2013-02-03 03:36:00,
2013-02-02 19:51:00,46.9,44.0,30.32,NNW,341,4.0,6.0,89,0.00,,,0.00,0,weatherlink.com 1.10,2013-02-03 03:51:00,
2013-02-02 20:06:00,47.0,43.0,30.32,NNW,342,0.0,5.0,87,0.00,,,0.00,0,weatherlink.com 1.10,2013-02-03 04:06:00,
2013-02-02 20:21:00,46.3,43.0,30.32,NNW,342,3.0,4.0,87,0.00,,,0.00,0,weatherlink.com 1.10,2013-02-03 04:21:00,
2013-02-02 20:36:00,46.5,43.0,30.31,North,9,2.0,7.0,88,0.00,,,0.00,0,weatherlink.com 1.10,2013-02-03 04:36:00,
2013-02-02 20:51:00,46.0,43.0,30.31,North,9,4.0,5.0,88,0.00,,,0.00,0,weatherlink.com 1.10,2013-02-03 04:51:00,
2013-02-02 21:06:00,46.3,43.0,30.31,North,9,4.0,6.0,89,0.00,,,0.00,0,weatherlink.com 1.10,2013-02-03 05:06:00,
2013-02-02 21:21:00,47.3,44.0,30.31,North,9,1.0,6.0,88,0.00,,,0.00,0,weatherlink.com 1.10,2013-02-03 05:21:00,
2013-02-02 21:36:00,47.8,45.0,30.31,North,9,2.0,6.0,88,0.00,,,0.00,0,weatherlink.com 1.10,2013-02-03 05:36:00,
2013-02-02 21:51:00,48.2,45.0,30.31,North,9,0.0,5.0,87,0.00,,,0.00,0,weatherlink.com 1.10,2013-02-03 05:51:00,
2013-02-02 22:06:00,48.2,45.0,30.31,North,9,2.0,3.0,87,0.00,,,0.00,0,weatherlink.com 1.10,2013-02-03 06:06:00,
2013-02-02 22:21:00,48.1,44.0,30.31,North,9,2.0,3.0,86,0.00,,,0.00,0,weatherlink.com 1.10,2013-02-03 06:21:00,
2013-02-02 22:36:00,48.7,45.0,30.30,North,9,2.0,7.0,86,0.00,,,0.00,0,weatherlink.com 1.10,2013-02-03 06:36:00,
2013-02-02 22:51:00,48.8,45.0,30.30,North,9,0.0,3.0,86,0.00,,,0.00,0,weatherlink.com 1.10,2013-02-03 06:51:00,
2013-02-02 23:06:00,48.5,45.0,30.30,North,9,1.0,3.0,87,0.00,,,0.00,0,weatherlink.com 1.10,2013-02-03 07:06:00,
2013-02-02 23:21:00,48.4,45.0,30.30,North,9,0.0,2.0,88,0.00,,,0.00,0,weatherlink.com 1.10,2013-02-03 07:21:00,
2013-02-02 23:36:00,48.4,45.0,30.31,North,9,0.0,2.0,88,0.00,,,0.00,0,weatherlink.com 1.10,2013-02-03 07:36:00,
2013-02-02 23:51:00,48.2,45.0,30.30,North,9,1.0,1.0,88,0.00,,,0.00,0,weatherlink.com 1.10,2013-02-03 07:51:00,